Weather History for Fort Knox, KY

Change the Weather History Date:

Saturday, August 3, 2013

  Actual Average Record
Temperature  
Mean Temperature 76 °F -  
Max Temperature 84 °F 84 °F 98 °F (2002)
Min Temperature 69 °F 64 °F 57 °F (2014)
Cooling Degree Days 12    
Growing Degree Days 26 (Base 50)    
Moisture  
Dew Point 69 °F    
Average Humidity 79    
Maximum Humidity 90    
Minimum Humidity 66    
Precipitation  
Precipitation 0.00 in - - ()
Sea Level Pressure  
Sea Level Pressure 29.99 in    
Wind  
Wind Speed 4 mph (WSW)    
Max Wind Speed 10 mph    
Max Gust Speed -    
Visibility 10 miles    
Events      
Averages and records for this station are not official NWS values.
T = Trace of Precipitation, MM = Missing Value Source: NWS Daily Summary

Daily Weather History Graph

Daily Weather History Graph

Search for Another Location

Airport:

Trip Planner

Search our weather history database for the weather conditions in past years. The results will help you decide how hot, cold, wet, or windy it might be!

Date:

Astronomy

Aug. 03, 2013 Rise Set
Actual Time 6:49 AM EDT 8:50 PM EDT
Civil Twilight 6:20 AM EDT 9:19 PM EDT
Nautical Twilight 5:44 AM EDT 9:54 PM EDT
Astronomical Twilight 5:06 AM EDT 10:32 PM EDT
Moon 3:58 AM EDT (8/3) 6:31 PM EDT (8/3)
Length of Visible Light 14h 59m
Length of Day
14h 01m
Waning Crescent, 9% of the Moon is Illuminated
Aug 3
Waning Crescent
Aug 6
New
Aug 14
First Quarter
Aug 20
Full
Aug 28
Last Quarter

Hourly Weather History & Observations

Time (EDT) Temp. Heat Index Dew Point Humidity Pressure Visibility Wind Dir Wind Speed Gust Speed Precip Events Conditions
12:58 AM 70.0 °F - 65.8 °F 87% 29.98 in 10.0 mi South 2.3 mph - N/A   Mostly Cloudy
1:58 AM 69.8 °F - 66.6 °F 89% 29.99 in 10.0 mi Calm Calm - N/A   Overcast
2:58 AM 69.1 °F - 65.7 °F 89% 29.97 in 10.0 mi SSW 3.5 mph - N/A   Clear
6:58 AM 69.6 °F - 65.5 °F 87% 29.97 in 10.0 mi Calm Calm - N/A   Overcast
7:58 AM 70.2 °F - 66.4 °F 88% 29.97 in 10.0 mi Calm Calm - N/A   Mostly Cloudy
8:58 AM 71.4 °F - 66.6 °F 85% 29.99 in 10.0 mi SSW 3.5 mph - N/A   Overcast
9:58 AM 73.0 °F - 67.1 °F 82% 29.99 in 10.0 mi SSW 3.5 mph - N/A   Overcast
10:58 AM 75.9 °F - 68.0 °F 76% 29.99 in 10.0 mi SW 4.6 mph - N/A   Overcast
11:58 AM 79.0 °F - 68.4 °F 70% 30.00 in 10.0 mi WSW 5.8 mph - N/A   Overcast
12:58 PM 81.3 °F 84.5 °F 69.1 °F 66% 30.00 in 10.0 mi West 9.2 mph - N/A   Overcast
1:58 PM 81.1 °F 84.5 °F 69.8 °F 68% 30.00 in 10.0 mi WSW 8.1 mph - N/A   Overcast
2:58 PM 81.9 °F 86.4 °F 71.6 °F 71% 30.00 in 10.0 mi West 8.1 mph - N/A   Overcast
3:58 PM 84.0 °F 89.9 °F 72.3 °F 68% 29.99 in 10.0 mi West 10.4 mph - N/A   Overcast
4:58 PM 84.4 °F 90.6 °F 72.9 °F 68% 29.97 in 10.0 mi WSW 10.4 mph - N/A   Mostly Cloudy
5:58 PM 82.9 °F 88.5 °F 72.7 °F 71% 29.97 in 10.0 mi SW 5.8 mph - N/A   Mostly Cloudy
6:58 PM 81.0 °F 85.8 °F 73.2 °F 77% 29.97 in 10.0 mi West 5.8 mph - N/A   Mostly Cloudy
7:58 PM 80.8 °F 85.2 °F 72.5 °F 76% 29.96 in 10.0 mi WNW 4.6 mph - N/A   Scattered Clouds
8:58 PM 78.4 °F - 70.5 °F 77% 29.99 in 10.0 mi North 8.1 mph - N/A   Mostly Cloudy
9:56 PM 74.8 °F - 69.8 °F 84% 30.00 in 10.0 mi North 5.8 mph - N/A   Partly Cloudy
10:56 PM 73.9 °F - 69.1 °F 85% 30.03 in 10.0 mi North 4.6 mph - N/A   Scattered Clouds
11:58 PM 70.9 °F - 67.8 °F 90% 30.04 in 10.0 mi North 3.5 mph - N/A   Clear